This is the latest recevied weather packets stored in our database for station/object KC4QLP. If no packets are shown the sender has not sent any weather packets the latest 10 day(s).
| Time | Temp. | Humidity | Pressure | Rain* | Wind** | Luminosity | Snow |
|---|---|---|---|---|---|---|---|
| 1777384823 | 17.22° C | 45% | 1015.3 hPa | 0 mm | - | 0 W/m² | - |
| 1777383023 | 16.11° C | 50% | 1015.6 hPa | 0 mm | - | 0 W/m² | - |
| 1777381224 | 14.44° C | 55% | 1015.8 hPa | 0 mm | - | 0 W/m² | - |
| 1777379423 | 12.78° C | 69% | 1015.7 hPa | 0 mm | - | 0 W/m² | - |
| 1777377623 | 8.33° C | 87% | 1016.3 hPa | 0 mm | - | 0 W/m² | - |
| 1777375823 | 5.56° C | 90% | 1016.6 hPa | 0 mm | - | 0 W/m² | - |
| 1777374024 | 3.33° C | 89% | 1016.2 hPa | 0 mm | - | 0 W/m² | - |
| 1777372224 | 8.89° C | 78% | 1016.5 hPa | 0 mm | - | 0 W/m² | - |
| 1777370424 | 8.89° C | 78% | 1016.5 hPa | 0 mm | - | 0 W/m² | - |
| 1777368624 | 8.89° C | 78% | 1016.8 hPa | 0 mm | - | 0 W/m² | - |
| 1777366824 | 8.89° C | 78% | 1016.6 hPa | 0 mm | - | 0 W/m² | - |
| 1777365023 | 8.89° C | 78% | 1016.7 hPa | 0 mm | - | 0 W/m² | - |
| 1777363224 | 8.89° C | 78% | 1017.1 hPa | 0 mm | - | 0 W/m² | - |
| 1777361424 | 8.89° C | 78% | 1017.2 hPa | 0 mm | - | 0 W/m² | - |
| 1777359624 | 8.89° C | 78% | 1017.3 hPa | 0 mm | - | 0 W/m² | - |
| 1777357824 | 8.89° C | 78% | 1017.2 hPa | 0 mm | - | 0 W/m² | - |
| 1777356024 | 8.89° C | 78% | 1017.3 hPa | 0 mm | - | 0 W/m² | - |
| 1777354224 | 8.89° C | 78% | 1017.1 hPa | 0 mm | - | 0 W/m² | - |
| 1777352424 | 8.89° C | 78% | 1017.2 hPa | 0 mm | - | 0 W/m² | - |
| 1777350624 | 8.89° C | 78% | 1017.3 hPa | 0 mm | - | 0 W/m² | - |
| 1777348824 | 8.89° C | 78% | 1017.6 hPa | 0 mm | - | 0 W/m² | - |
| 1777347024 | 8.89° C | 78% | 1017.9 hPa | 0 mm | - | 0 W/m² | - |
| 1777345224 | 8.89° C | 78% | 1018.2 hPa | 0 mm | - | 0 W/m² | - |
| 1777343424 | 8.89° C | 78% | 1018.4 hPa | 0 mm | - | 0 W/m² | - |
| 1777341624 | 9.44° C | 78% | 1018.4 hPa | 0 mm | - | 0 W/m² | - |
* Rain latest hour (hover to see other rain measurements)
** Current wind speed in m/s (hover to see current wind gust speed)